Wind_Speed
29 29 26 24 24 24 23 23 23 23 22 22 21 21 22 22 22 22 23 23 23 21 21 21 21 22 22 20 20 20 21 19 17 18 19 20 20 20 20 19 19 19 17
38 31 29 27 26 25 24 23 23 22 22 22 21 21 22 22 22 21 21 23 23 22 22 21 22 23 23 22 21 21 21 19 12 16 20 20 21 20 20 19 17 18 17
37 33 28 30 29 27 25 23 22 22 22 22 22 22 22 21 21 21 20 22 23 22 22 24 25 26 25 23 21 23 29 25 13 16 16 19 19 19 19 18 17 16 16
35 32 31 30 29 27 25 22 22 22 21 21 22 22 22 21 20 21 22 22 23 22 22 24 25 26 27 25 22 25 36 27 28 22 18 17 19 19 18 17 16 16 16
34 33 32 31 29 26 24 23 23 23 21 21 23 22 22 21 20 21 23 22 22 22 21 23 23 24 25 26 23 24 33 24 19 18 21 22 21 20 19 17 17 15 14
36 36 32 30 29 26 24 23 23 24 21 22 22 21 22 21 21 21 22 22 21 21 21 21 21 22 24 25 24 22 23 30 11 20 21 21 21 17 16 16 17 15 14
35 35 32 28 25 24 24 23 23 23 21 21 21 21 22 21 20 20 21 21 19 19 18 18 18 19 21 23 22 21 19 25 17 15 19 21 19 18 17 15 15 15 15
31 31 29 24 22 19 22 22 23 22 22 21 21 21 21 21 19 19 18 17 16 14 14 15 15 16 18 20 20 19 17 19 22 13 16 18 18 17 17 16 15 15 14
28 24 22 20 17 19 22 23 22 21 21 21 21 22 20 20 18 15 14 13 12 11 12 12 13 13 13 16 19 18 15 15 22 9 15 18 18 17 17 17 15 15 14
31 27 23 16 20 21 22 21 21 21 21 22 22 20 18 17 14 12 10 9 9 10 11 11 11 11 14 10 17 16 14 15 18 22 15 16 17 15 16 17 15 15 16
26 25 23 21 22 21 22 21 21 20 22 21 20 19 18 14 12 10 8 7 8 9 12 12 10 11 12 14 11 13 13 15 14 21 17 19 16 15 14 16 15 15 15
23 22 25 26 25 25 23 22 22 22 21 20 18 16 12 11 9 7 7 8 10 9 9 10 11 11 12 12 13 13 15 14 13 15 19 18 17 13 13 13 14 15 16
25 22 26 27 26 24 24 23 24 23 21 17 11 8 10 11 9 3 6 9 7 11 12 13 8 7 9 11 13 14 13 12 15 15 16 16 16 12 11 11 13 14 16
25 28 28 27 26 24 24 26 23 21 18 16 14 14 12 8 5 5 7 7 15 13 9 6 8 11 12 12 13 14 12 13 14 18 12 14 15 15 7 9 12 14 16
27 30 32 30 25 26 27 22 19 20 22 20 14 11 11 12 12 11 11 10 8 6 6 6 9 11 11 12 11 15 16 14 13 18 16 17 19 13 5 8 11 14 16
32 27 27 22 23 22 24 27 26 25 21 16 12 11 10 9 10 10 9 8 5 5 6 7 8 9 10 12 13 14 16 14 15 17 19 21 19 6 6 7 10 13 15
36 32 24 26 21 24 27 25 23 19 15 15 14 11 10 9 12 12 9 7 6 6 6 6 6 8 11 11 13 14 11 16 16 17 20 19 7 6 6 9 11 13 12
37 31 26 22 23 25 23 22 20 17 15 14 13 12 10 12 11 8 5 6 7 6 4 6 7 10 11 13 14 15 18 20 17 22 20 17 4 8 7 7 10 11 11
36 34 28 28 26 24 22 21 20 17 14 11 10 11 15 15 12 7 7 6 6 4 4 7 10 10 12 14 14 13 15 16 18 18 19 13 15 13 11 12 10 8 10
36 37 34 31 27 25 24 22 18 12 10 9 10 12 15 14 12 6 4 3 4 4 5 9 7 8 14 12 16 13 18 14 13 17 17 15 17 16 16 15 14 17 15
41 40 37 33 29 27 24 18 12 12 12 12 10 13 13 14 10 7 7 5 5 4 7 7 9 14 16 15 11 21 19 10 15 10 15 16 20 18 16 16 20 14 13
40 38 36 31 29 25 20 16 13 16 14 12 13 13 14 11 9 7 6 2 2 6 5 8 12 15 14 15 18 17 4 14 7 12 21 24 18 17 17 12 13 18 20
30 34 33 31 28 23 17 14 13 13 17 16 15 14 16 14 9 6 5 4 1 2 5 10 12 14 19 20 16 10 3 3 6 8 17 10 16 18 13 16 18 16 14
29 33 31 30 27 22 20 22 21 23 23 21 19 19 19 13 11 7 6 6 8 5 5 6 9 12 16 18 19 20 16 10 2 4 3 17 15 14 19 17 17 15 17
36 33 31 28 22 23 25 25 24 23 22 25 23 22 19 15 11 7 7 5 5 1 5 10 14 17 19 21 20 15 12 10 12 5 5 2 16 16 15 14 16 21 25
36 34 30 27 24 24 29 27 25 20 20 22 25 24 18 14 12 10 8 4 1 6 9 12 15 16 18 20 22 23 12 6 5 7 4 6 10 15 14 13 19 20 17
Wind_Direction
142 140 139 139 141 138 134 128 123 116 110 105 100 95 92 90 87 86 85 83 81 78 72 67 63 62 60 60 60 58 58 57 69 65 62 58 54 52 51 50 51 45 43
141 144 146 147 144 139 134 129 123 116 111 107 103 99 96 94 92 90 85 84 79 73 69 65 63 61 60 59 54 50 43 35 53 73 59 63 57 50 49 52 51 46 44
142 142 149 144 142 140 136 130 122 116 111 108 107 102 100 96 93 90 87 85 82 76 72 69 67 64 61 61 54 44 32 46 82 89 70 62 58 52 43 45 43 42 40
138 143 146 141 140 139 133 128 123 116 113 112 109 107 103 99 94 91 89 86 80 74 71 70 66 63 60 57 50 45 42 74 91 91 83 60 52 45 40 36 34 33 34
144 144 142 139 138 137 133 128 122 117 116 116 110 110 105 100 96 94 93 88 84 80 78 73 68 62 59 55 51 50 48 83 92 84 67 54 48 43 37 30 25 25 23
148 144 141 141 140 136 133 125 123 115 117 114 111 108 102 101 100 100 97 93 86 81 74 71 66 59 55 53 54 48 47 47 59 70 60 54 49 51 38 29 22 17 19
145 137 138 136 136 131 130 130 121 119 122 118 114 108 105 104 103 99 95 91 84 78 75 68 61 56 51 46 46 47 46 38 55 56 49 52 50 47 41 27 17 10 10
124 129 127 129 123 129 128 124 123 124 123 119 114 110 109 107 104 100 95 92 86 77 70 62 55 46 49 46 43 37 40 32 40 35 36 39 34 39 35 26 18 13 6
107 104 114 115 130 137 130 128 126 126 123 118 115 115 112 109 104 99 95 90 86 80 69 59 47 41 43 47 45 30 29 24 25 21 19 19 21 31 32 29 24 18 10
122 126 120 143 144 136 132 130 127 127 124 119 116 112 110 105 103 101 99 92 82 74 65 55 48 47 34 37 37 24 14 5 13 3 6 13 8 26 31 33 33 30 20
133 145 149 155 146 139 136 133 128 127 125 119 119 118 115 112 104 94 102 96 80 72 71 68 57 48 42 33 25 7 354 357 357 359 356 357 9 23 28 24 38 32 27
156 163 164 158 153 146 138 135 135 132 128 126 125 130 120 137 121 97 116 99 85 81 75 51 62 45 37 26 7 353 358 353 350 346 343 352 358 22 30 35 39 31 27
161 170 161 150 146 142 140 142 141 136 131 121 124 120 144 158 156 151 152 114 99 89 75 81 78 48 32 15 8 0 0 358 354 348 329 337 353 12 30 38 40 32 20
157 157 168 161 150 149 144 147 145 144 135 144 146 148 149 156 138 88 85 118 112 111 101 61 23 4 4 1 4 7 359 359 354 344 334 341 341 345 31 44 38 30 19
150 145 143 148 148 152 152 159 162 162 153 157 158 151 163 156 125 124 132 133 118 104 72 38 15 17 7 352 348 1 357 354 351 353 351 348 339 329 19 47 41 26 16
148 150 153 150 155 157 158 150 146 151 155 160 163 160 163 157 143 152 140 130 112 64 51 34 26 6 359 352 341 343 347 342 341 341 343 337 335 328 17 41 37 23 11
147 148 155 153 159 150 142 147 151 154 159 162 160 156 171 162 149 143 136 104 91 66 49 31 17 353 347 349 353 353 356 346 342 341 346 341 11 8 9 38 32 18 17
146 149 159 160 157 154 152 152 152 157 161 153 145 144 151 154 153 147 139 110 95 77 54 14 354 353 357 358 353 349 352 356 349 337 341 335 50 54 53 36 18 30 18
149 151 156 163 161 160 160 160 164 163 155 148 134 137 137 137 126 139 109 106 111 91 15 352 358 4 357 349 350 347 346 342 345 352 9 37 17 8 354 350 5 8 355
150 161 161 162 160 164 166 169 169 173 167 160 144 140 138 130 119 111 104 112 122 87 46 10 360 359 347 334 331 341 344 337 338 345 0 12 14 25 24 10 4 349 342
158 163 166 166 170 169 168 169 175 185 171 166 158 148 135 127 130 122 137 129 117 68 24 10 6 347 340 338 332 337 332 325 330 324 351 347 347 351 345 340 343 351 349
160 165 170 174 172 176 180 181 194 188 174 169 155 142 137 147 154 179 192 190 313 339 2 348 344 335 331 337 332 332 341 317 306 315 310 316 330 333 340 347 1 345 334
159 167 176 177 180 183 188 187 170 161 155 160 159 157 164 170 175 182 174 178 319 307 318 331 334 333 325 329 326 315 321 279 314 303 311 308 315 327 330 332 333 342 343
163 170 174 177 182 188 188 181 177 170 170 180 176 175 178 177 177 195 222 273 304 297 330 343 330 331 332 329 323 314 280 293 278 310 228 300 308 307 312 326 330 329 331
159 170 184 188 191 185 192 189 182 185 185 183 184 178 184 187 200 216 236 231 173 77 335 327 326 326 321 313 312 302 280 276 288 265 300 281 301 295 300 310 306 314 321
170 175 182 187 190 194 186 190 186 191 176 178 183 174 182 201 191 165 162 178 305 326 330 325 319 315 316 313 308 301 270 248 267 283 288 286 283 300 295 295 302 311 312
Height
809 813 817 819 823 826 829 830 833 834 835 836 839 841 841 843 845 849 848 849 851 852 852 852 852 851 850 850 849 849 850 851 851 850 848 848 850 849 849 848 846 846 845
802 811 813 817 823 828 831 834 835 836 836 837 840 842 843 846 846 850 852 851 852 854 853 854 854 853 851 851 851 852 853 853 851 851 851 852 852 853 852 850 849 847 848
803 807 816 816 822 828 831 834 836 837 838 840 841 844 844 849 850 851 854 853 854 855 855 857 856 855 854 853 855 853 852 848 850 853 854 855 856 855 855 852 852 850 848
804 810 816 818 823 829 833 836 836 838 841 843 843 845 846 849 853 853 855 856 856 859 859 860 861 859 857 858 858 856 854 851 854 857 857 857 856 857 856 855 854 852 851
805 811 816 819 826 831 832 835 837 838 843 846 844 847 848 851 855 856 855 858 860 861 863 862 863 862 861 861 860 857 857 859 860 860 859 858 857 858 858 857 856 856 854
804 808 816 822 825 828 833 834 837 838 846 847 848 850 850 853 855 857 858 859 863 864 865 866 866 866 866 864 863 862 862 864 864 861 860 860 859 859 861 860 859 859 856
807 811 816 824 828 829 831 836 837 840 847 848 850 850 852 856 859 860 861 861 865 866 868 868 869 869 868 868 867 866 865 866 868 864 862 862 862 861 859 861 859 859 858
801 817 817 825 827 833 835 837 840 844 846 848 851 852 856 858 861 862 863 864 866 869 870 871 872 872 869 870 869 869 868 868 869 867 865 863 863 861 861 859 860 859 858
819 822 823 826 831 838 838 840 842 846 847 850 851 855 858 860 862 864 866 866 868 869 870 872 873 873 872 873 871 871 870 870 869 869 867 864 863 863 861 859 860 859 859
819 822 829 834 838 841 841 842 843 847 850 851 854 858 859 862 864 864 867 869 871 871 871 871 873 874 873 873 873 872 870 871 870 869 867 866 864 864 861 859 859 858 859
827 831 833 838 840 841 842 844 845 849 851 853 856 858 860 863 863 865 867 869 870 871 871 872 874 873 873 873 874 873 871 871 871 870 868 867 864 864 861 859 858 859 858
828 828 833 836 839 842 843 844 848 850 853 854 857 859 859 861 862 864 866 868 869 871 871 874 874 874 874 874 873 873 872 872 872 869 868 867 864 863 862 860 858 860 858
826 829 832 836 838 840 842 846 848 849 851 853 859 860 859 862 862 865 866 867 870 872 872 873 872 875 873 873 874 873 872 871 871 869 868 865 863 863 861 860 858 858 860
825 829 831 835 838 840 842 844 847 848 850 853 854 856 858 865 864 866 868 870 868 869 870 871 872 874 873 874 874 872 871 869 868 869 865 864 862 860 860 859 858 857 859
826 828 833 837 838 839 840 843 846 848 849 852 856 856 859 859 863 866 866 867 868 869 868 870 872 872 873 873 873 871 870 868 866 868 864 864 861 859 857 858 857 856 857
823 829 833 836 839 838 839 841 844 847 849 852 854 854 859 861 859 863 866 865 867 869 869 871 871 872 873 872 871 870 869 866 866 865 862 860 858 858 856 855 855 855 855
822 827 834 836 836 837 838 840 846 847 849 848 851 855 858 860 860 861 864 866 868 868 868 869 869 872 872 871 870 869 867 865 863 861 859 858 856 856 855 854 853 853 853
818 825 832 833 835 837 840 841 844 847 848 852 854 853 856 857 858 860 864 866 868 868 867 867 869 870 870 869 868 867 865 863 862 859 858 857 855 854 854 853 852 851 851
815 822 828 832 834 837 840 843 845 847 850 853 853 853 854 856 854 860 863 866 867 867 866 868 867 868 868 867 867 865 864 862 861 860 857 856 857 855 853 851 849 849 850
815 819 824 830 834 838 839 842 844 847 849 852 852 852 854 855 856 860 864 867 866 866 866 866 867 867 866 865 864 862 861 860 859 858 857 857 856 854 853 851 850 849 848
811 814 820 826 831 834 837 840 842 845 847 850 852 853 853 854 858 861 865 866 865 865 865 865 866 865 864 863 860 858 856 856 857 856 856 855 854 853 853 851 849 847 846
808 813 819 824 827 831 835 838 842 843 846 848 850 852 852 855 859 861 863 863 863 863 864 864 864 864 863 862 860 857 854 853 853 854 853 852 852 851 850 848 847 846 844
808 812 817 821 826 829 834 838 841 842 845 848 850 850 852 855 857 860 861 861 861 862 863 863 863 862 860 860 860 859 855 854 850 849 851 850 849 847 847 846 845 843 842
807 813 818 820 824 827 832 835 837 838 841 843 845 848 851 855 858 859 859 859 860 861 861 861 861 860 859 857 857 856 854 852 850 847 846 846 845 844 843 842 841 840 839
803 810 815 818 822 825 829 832 834 836 837 839 843 847 850 852 855 857 857 857 858 859 859 858 858 857 856 854 853 850 849 848 847 846 840 841 842 841 841 840 838 837 835
797 805 811 816 819 823 826 829 831 833 835 837 840 845 848 851 851 852 854 855 856 857 856 855 854 854 853 852 850 848 846 845 845 845 841 837 836 836 836 836 836 834 832